Location: *
(29.1167°S, 130.0000°E)
Time: 09:03:07
(UTC+00:00)

Cosmos 2219 - Pass Details

Date: 21 July 2019
Orbit: 832 x 861 km, 71.1° (Epoch: 20 August)

Event Time Altitude Azimuth Distance (km) Brightness Sun altitude
Rises 10:56:41 0° 336° (NNW) 3,408 6.8 -29.0°
Reaches altitude 10° 10:59:08 10° 334° (NNW) 2,475 6.0 -29.5°
Enters shadow 11:04:33 69° 270° (W) 910 3.4 -30.7°
